Content
SEND FEEDBACK

Daily
Averages
Monthly
Summary
United States of America

TELLURIDE, COLORADO


Home > North America > United States > Colorado
Elevation: 9813 feet     Latitude: 37 57N     Longitude: 107 49W

WEATHER
 
SELECT A DAY
Number of Records: 305,557;   Date Range: 1/1/95 - 10/24/14
 
SHARE

PRINT THIS DATA

[ ← Previous Day ]
WEATHER ALMANAC - APRIL 26, 2013
[ Next Day → ]
[ °C ]   °F
Weather ElementAverageHighLow
Temperature42.2 °F51.8 °F (4:15 pm)32 °F (4:15 am)
Dewpoint19.4 °F26.6 °F (1:15 am)12.2 °F (10:55 am)
Humidity43.7 %75 % (4:15 am)22 % (11:55 am)
Barometer30.28 in30.40 in (11:55 pm)30.17 in (1:55 am)
Wind Speed4.2 mph12.7 mph (4:55 pm)
Wind Gust19.6 mph (4:55 pm)
Weather ElementAverage
Visibility10 mi
Wind DirectionESE (111.9 °)

Weather ElementTotal
Precipitation---
Heating Degree Days23.1 (Base 65)
Averaged from 70 records on April 26, 2013
WEATHER CONDITIONS BREAKOUT
WIND DIRECTION BREAKOUT
WEATHER BY HOUR - APRIL 26, 2013
[ °C ]   °F
Local TimeTemperatureDewpointHumidityBarometerVisibilityWind DirectionWind SpeedGust SpeedPrecipitationEventsConditions
12:35 AM39.2 °F24.8 °F56 %30.18 in10.0 miCalm
12:55 AM37.4 °F23.0 °F56 %30.18 in10.0 miCalm
1:15 AM37.4 °F26.6 °F65 %30.18 in10.0 miCalm
1:35 AM37.4 °F26.6 °F65 %30.18 in10.0 miCalm
1:55 AM35.6 °F26.6 °F70 %30.17 in10.0 miSE (130°)4.6 mph
2:15 AM35.6 °F26.6 °F70 %30.18 in10.0 miSE (130°)3.5 mph
2:35 AM33.8 °F24.8 °F70 %30.18 in10.0 miESE (110°)4.6 mph
2:55 AM33.8 °F24.8 °F70 %30.18 in10.0 miESE (110°)5.8 mph
3:15 AM33.8 °F24.8 °F70 %30.18 in10.0 miSE (130°)4.6 mph
3:35 AM33.8 °F24.8 °F70 %30.19 in10.0 miEast (100°)4.6 mph
3:55 AM33.8 °F24.8 °F70 %30.18 in10.0 miSSE (150°)5.8 mph
4:15 AM32.0 °F24.8 °F75 %30.19 in10.0 miESE (120°)5.8 mph
4:35 AM32.0 °F23.0 °F69 %30.20 in10.0 miCalm
4:55 AM32.0 °F23.0 °F69 %30.20 in10.0 miSSE (150°)5.8 mph
5:15 AM32.0 °F23.0 °F69 %30.21 in10.0 miESE (120°)6.9 mph
5:55 AM32.0 °F23.0 °F69 %30.22 in10.0 miSE (130°)5.8 mph
6:15 AM32.0 °F23.0 °F69 %30.22 in10.0 miESE (120°)5.8 mph
6:35 AM32.0 °F21.2 °F64 %30.22 in10.0 miESE (110°)5.8 mph
6:55 AM32.0 °F21.2 °F64 %30.23 in10.0 miSE (130°)4.6 mph
7:15 AM32.0 °F21.2 °F64 %30.24 in10.0 miCalm
7:35 AM33.8 °F23.0 °F65 %30.25 in10.0 miEast (100°)3.5 mph
7:55 AM35.6 °F21.2 °F56 %30.26 in10.0 miSE (130°)3.5 mph
8:15 AM37.4 °F19.4 °F48 %30.27 in10.0 miCalm
8:35 AM39.2 °F19.4 °F45 %30.27 in10.0 miEast (100°)4.6 mph
8:55 AM41.0 °F19.4 °F42 %30.27 in10.0 miESE (110°)4.6 mph
9:15 AM42.8 °F19.4 °F39 %30.28 in10.0 miESE (120°)3.5 mph
9:35 AM44.6 °F19.4 °F37 %30.28 in10.0 miSW (220°)3.5 mph
9:55 AM44.6 °F17.6 °F34 %30.28 in10.0 miCalm
10:15 AM46.4 °F17.6 °F32 %30.29 in10.0 miNW (310°)4.6 mph
10:35 AM46.4 °F14.0 °F27 %30.30 in10.0 miEast (90°)3.5 mph
10:55 AM46.4 °F12.2 °F25 %30.30 in10.0 miWest (260°)8.1 mph
11:15 AM50.0 °F14.0 °F24 %30.30 in10.0 miWest (260°)11.5 mph16.1 mph
11:35 AM48.2 °F14.0 °F25 %30.31 in10.0 miSW (230°)8.1 mph
11:55 AM50.0 °F12.2 °F22 %30.31 in10.0 miCalm
12:15 PM50.0 °F15.8 °F26 %30.31 in10.0 miWest (280°)5.8 mph
12:35 PM46.4 °F14.0 °F27 %30.30 in10.0 miWest (270°)5.8 mph
12:55 PM48.2 °F14.0 °F25 %30.30 in10.0 miCalm
1:15 PM48.2 °F17.6 °F30 %30.30 in10.0 miNorth (360°)3.5 mph
1:35 PM48.2 °F17.6 °F30 %30.30 in10.0 miENE (60°)6.9 mph
1:55 PM50.0 °F17.6 °F28 %30.30 in10.0 miCalm
2:15 PM50.0 °F17.6 °F28 %30.31 in10.0 miNW (320°)4.6 mph
2:35 PM50.0 °F15.8 °F26 %30.30 in10.0 miNNE (20°)3.5 mph
2:55 PM50.0 °F14.0 °F24 %30.30 in10.0 miCalm
3:15 PM50.0 °F15.8 °F26 %30.30 in10.0 miNorth (360°)3.5 mph
3:35 PM50.0 °F14.0 °F24 %30.30 in10.0 miCalm
3:55 PM50.0 °F15.8 °F26 %30.30 in10.0 miNNE (20°)3.5 mph
4:15 PM51.8 °F14.0 °F22 %30.30 in10.0 miCalm
4:35 PM51.8 °F14.0 °F22 %30.29 in10.0 miCalm
4:55 PM51.8 °F15.8 °F24 %30.30 in10.0 miWest (260°)12.7 mph19.6 mph
5:15 PM50.0 °F15.8 °F26 %30.31 in10.0 miWest (260°)12.7 mph16.1 mph
5:35 PM50.0 °F14.0 °F24 %30.31 in10.0 miWest (270°)10.4 mph
5:55 PM51.8 °F14.0 °F22 %30.32 in10.0 miCalm
6:15 PM50.0 °F17.6 °F28 %30.32 in10.0 miCalm
6:35 PM50.0 °F17.6 °F28 %30.32 in10.0 miNNE (20°)4.6 mph
6:55 PM48.2 °F15.8 °F27 %30.33 in10.0 miESE (120°)4.6 mph
7:15 PM48.2 °F17.6 °F30 %30.33 in10.0 miEast (90°)8.1 mph
7:35 PM46.4 °F17.6 °F32 %30.34 in10.0 miEast (90°)6.9 mph
7:55 PM46.4 °F19.4 °F34 %30.34 in10.0 miSE (140°)4.6 mph
8:15 PM44.6 °F17.6 °F34 %30.35 in10.0 miCalm
8:35 PM44.6 °F15.8 °F31 %30.35 in10.0 miCalm
8:55 PM42.8 °F21.2 °F42 %30.37 in10.0 miSE (130°)4.6 mph
9:15 PM42.8 °F23.0 °F46 %30.37 in10.0 miESE (120°)8.1 mph
9:35 PM41.0 °F23.0 °F49 %30.38 in10.0 miSE (130°)6.9 mph
9:55 PM41.0 °F21.2 °F45 %30.39 in10.0 miESE (110°)4.6 mph
10:15 PM39.2 °F21.2 °F49 %30.39 in10.0 miESE (120°)5.8 mph
10:35 PM39.2 °F21.2 °F49 %30.39 in10.0 miSE (130°)5.8 mph
10:55 PM37.4 °F21.2 °F52 %30.39 in10.0 miESE (110°)6.9 mph
11:15 PM37.4 °F21.2 °F52 %30.39 in10.0 miESE (120°)5.8 mph
11:35 PM37.4 °F21.2 °F52 %30.39 in10.0 miESE (110°)5.8 mph
11:55 PM35.6 °F21.2 °F56 %30.40 in10.0 miSE (140°)5.8 mph
Hourly data recorded from KTEX, located miles away from Telluride, Colorado







STORIES FROM OUR PARTNERS